• In Belarus
  • List of Countries
  • For 7 days
  • Water Temperature
  • Weather Map
  • Weather Widgets
  • user-avatar
    Login

    Hourly Weather Kipungo

    Today, 18 September, Wednesday

    Time Temperature Precipitation Wind Pressure Humidity
    00:00 +17°C° 0 mm 2 mps 652 mmHg 66%
    01:00 +15°C° 0 mm 1 mps 652 mmHg 76%
    02:00 +15°C° 0 mm 1 mps 652 mmHg 77%
    03:00 +14°C° 0 mm 1 mps 652 mmHg 79%
    04:00 +13°C° 0 mm 0 mps 652 mmHg 80%
    05:00 +15°C° 0 mm 1 mps 652 mmHg 73%
    06:00 +16°C° 0 mm 1 mps 653 mmHg 66%
    07:00 +18°C° 0 mm 1 mps 654 mmHg 56%
    08:00 +23°C° 0 mm 2 mps 655 mmHg 43%
    09:00 +27°C° 0 mm 3 mps 655 mmHg 30%
    10:00 +33°C° 0 mm 4 mps 656 mmHg 16%
    11:00 +34°C° 0 mm 4 mps 656 mmHg 13%
    12:00 +36°C° 0 mm 3 mps 655 mmHg 10%
    13:00 +38°C° 0 mm 3 mps 655 mmHg 7%
    14:00 +38°C° 0 mm 3 mps 654 mmHg 6%
    15:00 +38°C° 0 mm 2 mps 654 mmHg 6%
    16:00 +38°C° 0 mm 2 mps 653 mmHg 6%
    17:00 +33°C° 0 mm 1 mps 653 mmHg 8%
    18:00 +29°C° 0 mm 1 mps 653 mmHg 10%
    19:00 +26°C° 0 mm 1 mps 653 mmHg 12%
    20:00 +24°C° 0 mm 1 mps 653 mmHg 25%
    21:00 +21°C° 0 mm 2 mps 653 mmHg 38%
    22:00 +19°C° 0 mm 2 mps 653 mmHg 51%
    23:00 +18°C° 0 mm 2 mps 653 mmHg 61%

    Tomorrow, 19 September, Thursday

    Time Temperature Precipitation Wind Pressure Humidity
    00:00 +16°C° 0 mm 2 mps 652 mmHg 72%
    01:00 +15°C° 0 mm 1 mps 652 mmHg 82%
    02:00 +15°C° 0 mm 1 mps 652 mmHg 83%
    03:00 +14°C° 0 mm 1 mps 652 mmHg 83%
    04:00 +14°C° 0 mm 1 mps 652 mmHg 83%
    05:00 +14°C° 0 mm 0 mps 652 mmHg 76%
    06:00 +15°C° 0 mm 0 mps 653 mmHg 70%
    07:00 +16°C° 0 mm 0 mps 654 mmHg 63%
    08:00 +23°C° 0 mm 2 mps 654 mmHg 48%
    09:00 +27°C° 0 mm 4 mps 655 mmHg 32%
    10:00 +33°C° 0 mm 5 mps 656 mmHg 17%
    11:00 +35°C° 0 mm 4 mps 655 mmHg 14%
    12:00 +37°C° 0 mm 4 mps 655 mmHg 11%
    13:00 +39°C° 0 mm 3 mps 654 mmHg 9%
    14:00 +39°C° 0 mm 2 mps 654 mmHg 8%
    15:00 +39°C° 0 mm 2 mps 654 mmHg 8%
    16:00 +40°C° 0 mm 2 mps 653 mmHg 7%
    17:00 +35°C° 0 mm 2 mps 653 mmHg 16%
    18:00 +30°C° 0 mm 3 mps 653 mmHg 24%
    19:00 +26°C° 0 mm 4 mps 653 mmHg 33%
    20:00 +23°C° 0 mm 4 mps 653 mmHg 46%
    21:00 +20°C° 0 mm 3 mps 653 mmHg 60%
    22:00 +18°C° 0 mm 2 mps 653 mmHg 73%
    23:00 +17°C° 0 mm 2 mps 653 mmHg 77%

    Day after tomorrow, 20 September, Friday

    Time Temperature Precipitation Wind Pressure Humidity
    00:00 +17°C° 0 mm 2 mps 652 mmHg 81%
    01:00 +16°C° 0 mm 2 mps 652 mmHg 85%
    02:00 +15°C° 0 mm 2 mps 652 mmHg 86%
    03:00 +15°C° 0 mm 1 mps 652 mmHg 87%
    04:00 +14°C° 0 mm 1 mps 652 mmHg 88%
    05:00 +15°C° 0 mm 1 mps 653 mmHg 82%
    06:00 +16°C° 0 mm 1 mps 653 mmHg 75%
    07:00 +18°C° 0 mm 1 mps 654 mmHg 68%
    08:00 +24°C° 0 mm 1 mps 655 mmHg 51%
    09:00 +29°C° 0 mm 1 mps 656 mmHg 34%
    10:00 +34°C° 0 mm 1 mps 657 mmHg 17%
    11:00 +35°C° 0 mm 1 mps 656 mmHg 15%
    12:00 +37°C° 0 mm 2 mps 655 mmHg 14%
    13:00 +39°C° 0 mm 2 mps 654 mmHg 12%
    14:00 +39°C° 0 mm 2 mps 654 mmHg 12%
    15:00 +39°C° 0 mm 2 mps 654 mmHg 11%
    16:00 +38°C° 0 mm 2 mps 653 mmHg 10%
    17:00 +35°C° 0 mm 2 mps 653 mmHg 15%
    18:00 +31°C° 0 mm 2 mps 653 mmHg 20%
    19:00 +27°C° 0 mm 3 mps 653 mmHg 25%
    20:00 +25°C° 0 mm 3 mps 653 mmHg 36%
    21:00 +23°C° 0 mm 2 mps 653 mmHg 47%
    22:00 +20°C° 0 mm 2 mps 653 mmHg 58%
    23:00 +19°C° 0 mm 2 mps 652 mmHg 63%

    21 September, Saturday

    Time Temperature Precipitation Wind Pressure Humidity
    00:00 +18°C° 0 mm 2 mps 652 mmHg 67%
    01:00 +17°C° 0 mm 2 mps 652 mmHg 71%
    02:00 +16°C° 0 mm 2 mps 652 mmHg 73%
    03:00 +16°C° 0 mm 1 mps 651 mmHg 74%
    04:00 +16°C° 0 mm 1 mps 651 mmHg 76%
    05:00 +18°C° 0 mm 1 mps 652 mmHg 71%
    06:00 +16°C° 0 mm 0 mps 652 mmHg 67%
    07:00 +17°C° 0 mm 0 mps 653 mmHg 62%
    08:00 +23°C° 0 mm 0 mps 654 mmHg 47%
    09:00 +29°C° 0 mm 0 mps 655 mmHg 31%
    10:00 +34°C° 0 mm 0 mps 657 mmHg 15%
    11:00 +37°C° 0 mm 1 mps 656 mmHg 14%
    12:00 +39°C° 0 mm 1 mps 655 mmHg 13%
    13:00 +40°C° 0 mm 1 mps 654 mmHg 11%
    14:00 +39°C° 0 mm 2 mps 654 mmHg 12%
    15:00 +38°C° 0 mm 2 mps 653 mmHg 13%
    16:00 +37°C° 0 mm 2 mps 653 mmHg 14%
    17:00 +35°C° 0 mm 3 mps 653 mmHg 17%
    18:00 +31°C° 0 mm 3 mps 653 mmHg 21%
    19:00 +29°C° 0 mm 3 mps 653 mmHg 25%
    20:00 +26°C° 0 mm 3 mps 653 mmHg 34%
    21:00 +24°C° 0 mm 3 mps 653 mmHg 42%
    22:00 +21°C° 0 mm 3 mps 653 mmHg 50%
    23:00 +20°C° 0 mm 2 mps 652 mmHg 55%

    22 September, Sunday

    Time Temperature Precipitation Wind Pressure Humidity
    00:00 +19°C° 0 mm 1 mps 652 mmHg 60%
    01:00 +18°C° 0 mm 1 mps 651 mmHg 64%
    02:00 +18°C° 0 mm 1 mps 651 mmHg 66%
    03:00 +18°C° 0 mm 1 mps 651 mmHg 67%
    04:00 +16°C° 0 mm 1 mps 651 mmHg 68%
    05:00 +19°C° 0 mm 1 mps 652 mmHg 61%
    06:00 +20°C° 0 mm 1 mps 653 mmHg 54%
    07:00 +20°C° 0 mm 0 mps 654 mmHg 47%
    08:00 +26°C° 0 mm 1 mps 654 mmHg 35%
    09:00 +30°C° 0 mm 2 mps 655 mmHg 23%
    10:00 +35°C° 0 mm 3 mps 656 mmHg 11%
    11:00 +37°C° 0 mm 3 mps 655 mmHg 10%
    12:00 +39°C° 0 mm 2 mps 655 mmHg 9%
    13:00 +40°C° 0 mm 2 mps 654 mmHg 8%
    14:00 +40°C° 0 mm 2 mps 654 mmHg 8%
    15:00 +39°C° 0 mm 2 mps 653 mmHg 8%
    16:00 +39°C° 0 mm 2 mps 653 mmHg 8%
    17:00 +35°C° 0 mm 2 mps 653 mmHg 13%
    18:00 +31°C° 0 mm 3 mps 653 mmHg 18%
    19:00 +28°C° 0 mm 3 mps 653 mmHg 23%
    20:00 +25°C° 0 mm 3 mps 653 mmHg 35%
    21:00 +22°C° 0 mm 3 mps 653 mmHg 46%
    22:00 +19°C° 0 mm 3 mps 653 mmHg 57%
    23:00 +18°C° 0 mm 2 mps 652 mmHg 60%

    23 September, Monday

    Time Temperature Precipitation Wind Pressure Humidity
    00:00 +18°C° 0 mm 2 mps 652 mmHg 63%
    01:00 +17°C° 0 mm 2 mps 652 mmHg 66%
    02:00 +16°C° 0 mm 1 mps 652 mmHg 63%
    03:00 +16°C° 0 mm 1 mps 652 mmHg 61%
    04:00 +16°C° 0 mm 1 mps 652 mmHg 58%
    05:00 +18°C° 0 mm 1 mps 653 mmHg 53%
    06:00 +19°C° 0 mm 1 mps 653 mmHg 47%
    07:00 +20°C° 0 mm 1 mps 654 mmHg 42%
    08:00 +25°C° 0 mm 3 mps 655 mmHg 32%
    09:00 +29°C° 0 mm 4 mps 655 mmHg 22%
    10:00 +34°C° 0 mm 5 mps 656 mmHg 12%
    11:00 +36°C° 0 mm 4 mps 655 mmHg 10%
    12:00 +38°C° 0 mm 4 mps 655 mmHg 9%
    13:00 +39°C° 0 mm 3 mps 654 mmHg 8%
    14:00 +39°C° 0 mm 3 mps 654 mmHg 8%
    15:00 +39°C° 0 mm 3 mps 653 mmHg 8%
    16:00 +39°C° 0 mm 2 mps 653 mmHg 8%
    17:00 +35°C° 0 mm 3 mps 653 mmHg 13%
    18:00 +31°C° 0 mm 3 mps 653 mmHg 18%
    19:00 +27°C° 0 mm 3 mps 653 mmHg 24%
    20:00 +25°C° 0 mm 3 mps 653 mmHg 35%
    21:00 +21°C° 0 mm 3 mps 653 mmHg 47%
    22:00 +19°C° 0 mm 2 mps 653 mmHg 59%
    23:00 +18°C° 0 mm 2 mps 652 mmHg 64%
    Show more